www.pogodaiklimat.ru

Погода и климат >> Архив погоды >> Саудовская Аравия >> Медина


ПОГОДА в Медине

  • Прогноз погоды в Медине
  • Монитор погоды в Медине

АРХИВ ПОГОДЫ в Медине

Время (UTC), дата Ветер
(напр.,м/с)
 
Видим.   Явления Облачность Т
(С)
Тd
(С)
f
(%)
Тe
(С)
Тes
(С)
Комфортность P
(гПа)
Po
(гПа)
Тmin
(С)
Tmax
(С)
R
(мм)
R24
(мм)
S
(см)
00 15.09 штиль 0 10 км ясно +32.9 +7.0 20 +31 +31 жарко 1002.7 935.7
03 15.09 В 3 10 км ясно +29.7 +5.0 21 +28 +28 жарко 1004.4 936.7
06 15.09 штиль 0 10 км ясно +34.3 +4.0 15 +32 +42 жарко 1006.2 938.6 +29.0
09 15.09 ЮВ 2 10 км ясно +39.2 +4.0 11 +36 +54 опасность
солнечного
удара
1004.9 937.6
12 15.09 СЗ 2 10 км 4/4 1350 м
[Sc diur, vesp]
+41.1 +2.0 9 +38 +44 очень
жарко
1002.2 935.1
15 15.09 СЗ 4 10 км 5/5 1350 м
[Sc diur, vesp]
+40.7 +2.0 9 +37 +37 очень
жарко
1002.3 934.8
18 15.09 З 5 10 км 3/0
[Ac trans]
+38.4 +7.0 15 +36 +36 очень
жарко
1003.0 936.0 +43.0
21 15.09 СЗ 4 10 км ясно +36.5 +5.0 14 +34 +34 очень
жарко
1003.1 936.3
00 16.09 СЗ 2 10 км 3/0
[Ac trans]
+33.4 +8.0 21 +32 +32 жарко 1003.3 936.2
03 16.09 З 5 10 км ясно +32.2 +9.0 24 +31 +31 жарко 1004.1 936.8
06 16.09 ЮЗ 2 10 км ясно +34.2 +8.0 20 +33 +40 жарко 1005.6 938.1 +31.4
09 16.09 ЮЗ 3 10 км ясно +39.6 +5.0 12 +37 +53 опасность
солнечного
удара
1004.4 937.2
12 16.09 В 4 10 км 4/4 1350 м
[Sc diur, vesp]
+41.8 +2.0 9 +38 +43 очень
жарко
1001.6 934.8
15 16.09 ЮВ 4 10 км 4/4 1050 м
[Sc diur, vesp]
+41.6 0.0 8 +38 +38 очень
жарко
1001.4 934.4
18 16.09 В 2 10 км ясно +38.8 -2.0 8 +35 +35 очень
жарко
1002.7 935.7 +43.0
21 16.09 С 3 10 км ясно +35.5 +1.0 11 +32 +32 жарко 1003.1 936.2
00 17.09 штиль 0 10 км ясно +33.0 +2.0 14 +30 +30 жарко 1002.6 935.6
03 17.09 штиль 0 10 км ясно +30.1 -4.0 11 +27 +27 жарко 1004.2 936.8
06 17.09 штиль 0 10 км 4/0
[As trans]
+34.3 -4.0 8 +30 +38 жарко 1005.9 938.3 +30.0
09 17.09 З 3 10 км 4/0
[As trans]
+39.8 0.0 8 +36 +49 очень
жарко
1004.4 937.2
12 17.09 В 4 10 км 5/0
[As trans]
+40.8 -1.0 7 +37 +42 очень
жарко
1002.2 935.0
15 17.09 ЮВ 4 10 км 4/0
[As op Ci ing]
+40.3 -1.0 8 +36 +37 очень
жарко
1002.3 934.8
18 17.09 СВ 2 10 км ясно +36.9 -2.0 8 +33 +33 жарко 1003.1 935.8 +41.6
21 17.09 СВ 2 10 км ясно +32.3 -3.0 10 +29 +29 жарко 1003.4 936.1
00 18.09 СВ 3 10 км ясно +31.6 -3.0 11 +28 +28 жарко 1003.0 935.7
03 18.09 С 2 10 км ясно +27.6 -3.0 13 +25 +25 комфорт 1005.1 937.2
06 18.09 штиль 0 10 км ясно +34.2 -2.0 10 +30 +41 жарко 1006.8 938.8 +27.6
09 18.09 штиль 0 10 км ясно +41.2 -2.0 7 +37 +62 опасность
солнечного
удара
1005.5 938.0
12 18.09 СВ 4 10 км ясно +42.1 -4.0 6 +38 +45 очень
жарко
1003.5 936.0
15 18.09 С 1 10 км ясно +41.8 -4.0 6 +38 +38 очень
жарко
1003.0 935.6
18 18.09 В 3 10 км ясно +38.8 -4.0 7 +35 +35 очень
жарко
1003.9 936.9 +43.5
21 18.09 СЗ 3 10 км ясно +34.8 -5.0 8 +31 +31 жарко 1004.7 937.8
00 19.09 ЮЗ 2 10 км ясно +32.6 -5.0 9 +29 +29 жарко 1004.7 937.6
03 19.09 СВ 2 10 км ясно +30.3 -4.0 11 +27 +27 жарко 1006.4 938.8
06 19.09 штиль 0 10 км ясно +34.5 -4.0 8 +30 +40 жарко 1007.7 940.2 +30.0
09 19.09 СВ 8 10 км ясно +41.4 -2.0 7 +37 +41 очень
жарко
1005.0 938.0
12 19.09 В 7 10 км ясно +42.7 -3.0 6 +39 +42 очень
жарко
1003.2 936.2
15 19.09 В 6 10 км ясно +41.9 -4.0 6 +38 +38 очень
жарко
1003.2 935.9
18 19.09 В 8 10 км ясно +39.9 -1.0 8 +36 +36 очень
жарко
1004.2 937.1 +42.8
21 19.09 В 7 10 км ясно +36.7 -2.0 9 +33 +33 жарко 1004.7 938.0
00 20.09 СВ 4 10 км ясно +33.5 -1.0 11 +30 +30 жарко 1005.1 938.1
03 20.09 штиль 0 10 км ясно +29.5 -2.0 13 +26 +26 жарко 1007.0 939.2
06 20.09 В 3 10 км ясно +35.0 -2.0 9 +31 +37 жарко 1007.6 940.3 +29.0
09 20.09 В 5 10 км ясно +39.0 -2.0 8 +35 +44 очень
жарко
1005.9 938.8
12 20.09 ЮВ 1 10 км ясно +41.7 -2.0 7 +38 +50 очень
жарко
1003.3 936.1
15 20.09 СВ 4 10 км ясно +41.4 -5.0 5 +37 +37 очень
жарко
1003.2 935.8
18 20.09 В 3 10 км ясно +39.1 -4.0 6 +35 +35 очень
жарко
1003.9 936.9 +43.5
21 20.09 С 2 10 км ясно +35.8 -4.0 8 +32 +32 жарко 1004.0 937.0
00 21.09 СВ 2 10 км ясно +33.0 -3.0 10 +29 +29 жарко 1003.5 936.5
03 21.09 С 2 10 км ясно +29.2 -4.0 11 +26 +26 жарко 1005.3 937.6
06 21.09 В 2 10 км ясно +34.4 -3.0 9 +30 +38 жарко 1006.1 938.7 +28.0
09 21.09 ЮВ 4 10 км ясно +40.0 -1.0 8 +36 +48 очень
жарко
1004.2 937.2
12 21.09 В 2 10 км ясно +41.3 -2.0 7 +37 +48 очень
жарко
1002.3 935.2
15 21.09 СЗ 2 10 км ясно +40.5 -3.0 6 +36 +36 очень
жарко
1002.2 934.6
18 21.09 С 2 10 км ясно +36.5 -4.0 7 +32 +32 жарко 1002.6 935.5 +43.0
21 21.09 штиль 0 10 км ясно +31.8 -4.0 10 +28 +28 жарко 1002.7 935.4

 

Местоположение метеостанции Медина (Саудовская Аравия): широта 24.55 долгота 39.70 высота над уровнем моря 636 м.

В архиве по умолчанию представлена погода в Медине за последнюю неделю. Архивные данные за месяц целиком и за предыдущие месяцы, начиная с января 2011 года, Вы можете получить, выбрав интересующий диапазон дат из раскрывающегося списка и нажав кнопку "Ввод!".


*Определитесь, кто Вы:
робот инопланетянин человек

Внимание! Время в таблицах - всемирное. Для получения местного времени необходимо прибавить поправку, которая равна 3 ч.

Смотрите также архив погоды в соседних городах и на ближайших метеорологических станциях:

Погода в Янбу (Саудовская Аравия) (172 км)
Погода в Аль-Уле (Саудовская Аравия) (267 км)
Погода в Джидде (Саудовская Аравия) (321 км)
Погода в Мекке (Саудовская Аравия) (347 км)
Погода в Мине (Саудовская Аравия) (349 км)
Погода в Аль-Таифе (Саудовская Аравия) (352 км)
Погода в Арафате (Саудовская Аравия) (359 км)
Погода в Эль-Ваджхе (Саудовская Аравия) (372 км)
Погода в Хаиле (Саудовская Аравия) (377 км)
Погода в Шалатейне (Египет) (448 км)

Пояснения к столбцам:

Ветер - указаны скорость ветра в м/с - средняя за 10 мин, порывы в срок и между сроками (в фигурных скобках) и направление, откуда дует ветер: С - северный, СВ - северо-восточный, В - восточный, ЮВ - юго-восточный, Ю - южный, ЮЗ - юго-западный, З - западный, СЗ - северо-западный.
Видимость - горизонтальная дальность видимости в метрах или километрах. При видимости от 1 до 10 км при отсутствии осадков обычно наблюдается дымка, при ухудшении видимости до 1 км и менее - туман. В сухую погоду видимость может ухудшаться дымом, пылью или мглою.
Явления - указаны атмосферные явления, наблюдавшиеся в срок или в последний час перед сроком; фигурными скобками обозначены явления, наблюдавшиеся между сроками (за 1-3 часа до срока); квадратными скобками обозначены град или гололедные отложения с указанием их диаметра в мм.
Облачность - указаны через наклонную черту общая и нижняя облачность в баллах и высота нижней границы облаков в метрах; квадратными скобками обозначены формы облаков: Ci - перистые, Cs - перисто-слоистые, Cc - перисто-кучевые, Ac - высококучевые, As - высокослоистые, Sc - слоисто-кучевые, Ns - слоисто-дождевые, Cu - кучевые, Cb - кучево-дождевые. Подробнее классификацию облаков см. в Атласе облаков (PDF).
T - Температура воздуха - температура, измеренная на высоте 2 м над землей.
Td - Температура точки росы - температура, при понижении до которой содержащийся в воздухе водяной пар достигнет насыщения.
f - Относительная влажность воздуха - влажноcть воздуха, измеренная на высоте 2 м над землей.
Te - Эффективная температура - температура, которую ощущает одетый по сезону человек в тени. Характеристика душности погоды. При расчете учитывается влияние влажности воздуха и скорости ветра на теплоощущения человека.
Tes - Эффективная температура на солнце - температура, которую ощущает человек, с поправкой на солнечный нагрев. Характеристика знойности погоды. Зависит от высоты солнца над горизонтом, облачности и скорости ветра. Ночью, в пасмурную погоду, а также при ветре 12 м/с и более поправка равна нулю.
P - Атмосферное давление - приведенное к уровню моря атмосферное давление.
Po - Атмосферное давление - измеренное на уровне метеостанции атмосферное давление.
Tmin - Минимальная температура - минимум температуры воздуха на высоте 2 м над землей.
Tmax - Максимальная температура - максимум температуры воздуха на высоте 2 м над землей.
R - Количество осадков - Количество выпавших осадков за период времени, мм. При наведении курсора мыши на число - период времени, за который выпало указанное количество осадков.
R24 - Количество осадков - Количество выпавших осадков за 24 часа, мм.
S - Снежный покров - Высота снежного покрова, см. При наведении курсора мыши на число - состояние снежного покрова и степень покрытия местности в баллах.